Pearl, MS

11:29 PM CST on February 20, 2017 (GMT -0600)
Jackson-Evers International

Weather History for KJAN - January, 2011

Change the Weather History Date:

Monday, January 24, 2011

  Actual Average Record
Temperature  
Mean Temperature 50 °F 46 °F  
Max Temperature 61 °F 57 °F 82 °F (1972)
Min Temperature 39 °F 35 °F 1 °F (1948)
Degree Days  
Heating Degree Days 15 19  
Month to date heating degree days 543 475  
Since 1 July heating degree days 1470 1425  
Cooling Degree Days 0 0  
Month to date cooling degree days 0 0  
Year to date cooling degree days 0 0  
Growing Degree Days 2 (Base 50)    
Moisture  
Dew Point 46 °F    
Average Humidity 79    
Maximum Humidity 96    
Minimum Humidity 61    
Precipitation  
Precipitation 0.50 in 0.17 in 2.30 in (1990)
Month to date precipitation 1.97 3.73  
Year to date precipitation 1.97 3.73  
Sea Level Pressure  
Sea Level Pressure 30.07 in    
Wind  
Wind Speed 6 mph (SE)    
Max Wind Speed 15 mph    
Max Gust Speed 25 mph    
Visibility 8 miles    
Events Rain    
T = Trace of Precipitation, MM = Missing Value Source: NWS Daily Summary

Daily Weather History Graph

Daily Weather History Graph

Search for Another Location

Airport or City:

Trip Planner

Search our weather history database for the weather conditions in past years. The results will help you decide how hot, cold, wet, or windy it might be!

Date:

Astronomy

Jan. 24, 2011 Rise Set
Actual Time 6:59 AM CST 5:26 PM CST
Civil Twilight 6:32 AM CST 5:52 PM CST
Nautical Twilight 6:03 AM CST 6:21 PM CST
Astronomical Twilight 5:33 AM CST 6:51 PM CST
Moon 11:11 PM CST (1/24) 9:50 AM CST (1/24)
Length of Visible Light 11h 19m
Length of Day
10h 27m
Waning Gibbous, 70% of the Moon is Illuminated
Jan 24
Waning Gibbous
Jan 26
Last Quarter
Feb 2
New
Feb 11
First Quarter
Feb 18
Full

Hourly Weather History & Observations

Time (CST) Temp. Windchill Dew Point Humidity Pressure Visibility Wind Dir Wind Speed Gust Speed Precip Events Conditions
12:54 AM 43.0 °F 38.2 °F 37.0 °F 80% 30.08 in 10.0 mi SSE 8.1 mph - N/A   Overcast
1:54 AM 44.1 °F 39.0 °F 37.9 °F 79% 30.08 in 10.0 mi SSE 9.2 mph - N/A   Overcast
2:54 AM 44.1 °F 41.5 °F 37.9 °F 79% 30.09 in 10.0 mi SSE 4.6 mph - N/A   Overcast
3:54 AM 44.1 °F 41.5 °F 39.0 °F 82% 30.09 in 10.0 mi SSE 4.6 mph - N/A   Overcast
4:54 AM 45.0 °F 43.5 °F 39.9 °F 82% 30.08 in 10.0 mi SSE 3.5 mph - N/A   Overcast
5:54 AM 45.0 °F 41.8 °F 41.0 °F 86% 30.09 in 10.0 mi SSE 5.8 mph - 0.00 in Rain Light Rain
6:54 AM 44.1 °F 41.5 °F 41.0 °F 89% 30.10 in 10.0 mi SSE 4.6 mph - 0.00 in   Overcast
7:54 AM 46.0 °F 42.5 °F 41.0 °F 83% 30.12 in 10.0 mi SSE 6.9 mph - N/A   Overcast
8:54 AM 48.9 °F - 39.9 °F 71% 30.13 in 10.0 mi SSE 6.9 mph - N/A   Mostly Cloudy
9:54 AM 52.0 °F - 39.9 °F 63% 30.14 in 10.0 mi SSE 5.8 mph - 0.00 in   Mostly Cloudy
10:54 AM 55.0 °F - 43.0 °F 64% 30.13 in 10.0 mi South 8.1 mph - 0.00 in   Mostly Cloudy
11:54 AM 57.0 °F - 46.0 °F 67% 30.09 in 10.0 mi SSE 11.5 mph - N/A   Overcast
12:54 PM 59.0 °F - 46.0 °F 62% 30.07 in 10.0 mi South 4.6 mph - N/A   Overcast
1:46 PM 59.0 °F - 48.2 °F 67% 30.05 in 10.0 mi SSE 9.2 mph - N/A   Overcast
1:54 PM 60.1 °F - 48.0 °F 64% 30.04 in 10.0 mi SE 9.2 mph - N/A   Overcast
2:54 PM 60.1 °F - 48.0 °F 64% 30.04 in 10.0 mi SE 6.9 mph - N/A   Mostly Cloudy
3:54 PM 55.0 °F - 52.0 °F 89% 30.05 in 6.0 mi North 4.6 mph - 0.00 in Rain Light Rain
4:54 PM 54.0 °F - 51.1 °F 90% 30.04 in 6.0 mi East 6.9 mph - 0.02 in Rain Light Rain
5:54 PM 53.1 °F - 51.1 °F 93% 30.05 in 7.0 mi ESE 4.6 mph - 0.01 in Rain Light Rain
6:22 PM 53.6 °F - 51.8 °F 94% 30.06 in 7.0 mi Calm Calm - 0.01 in Rain Light Rain
6:54 PM 53.1 °F - 51.1 °F 93% 30.07 in 7.0 mi Calm Calm - 0.02 in Rain Light Rain
7:54 PM 53.1 °F - 51.1 °F 93% 30.07 in 8.0 mi Calm Calm - 0.01 in Rain Light Rain
8:54 PM 53.1 °F - 51.1 °F 93% 30.06 in 5.0 mi East 4.6 mph - 0.09 in Rain Rain
9:32 PM 51.8 °F - 51.8 °F 100% 30.05 in 6.0 mi East 5.8 mph - 0.06 in Rain Rain
9:54 PM 53.1 °F - 51.1 °F 93% 30.06 in 5.0 mi ESE 5.8 mph - 0.10 in Rain Rain
10:39 PM 51.8 °F - 50.0 °F 94% 30.04 in 5.0 mi East 8.1 mph - 0.14 in Rain Light Rain
10:54 PM 52.0 °F - 50.0 °F 93% 30.03 in 8.0 mi East 9.2 mph - 0.16 in Rain Light Rain
11:25 PM 51.8 °F - 50.0 °F 94% 30.02 in 5.0 mi ESE 12.7 mph - 0.04 in Rain Rain
11:54 PM 52.0 °F - 50.0 °F 93% 30.01 in 7.0 mi ESE 11.5 mph - 0.09 in Rain Light Rain